Time,TemperatureF,DewpointF,PressureIn,WindDirection,WindDirectionDegrees,WindSpeedMPH,WindSpeedGustMPH,Humidity,HourlyPrecipIn,Conditions,Clouds,dailyrainin,SoftwareType,DateUTC
2013-06-17 07:32:00,-999.0,-99.9,0.00,North,-999,0.0,0.0,-999,0.00,,,-99.99,WeatherLink 5.4,2013-06-17 11:32:00,
2013-06-17 07:38:00,-999.0,-99.9,0.00,North,-999,0.0,0.0,-999,0.00,,,-99.99,WeatherLink 5.4,2013-06-17 11:38:00,
2013-06-17 07:44:00,-999.0,-99.9,0.00,North,-999,0.0,0.0,-999,0.00,,,-99.99,WeatherLink 5.4,2013-06-17 11:44:00,
2013-06-17 07:50:00,79.8,73.1,29.92,ESE,112,0.0,1.0,80,0.00,,,-99.99,WeatherLink 5.4,2013-06-17 11:50:00,
2013-06-17 07:55:00,79.8,73.1,29.92,ESE,112,0.0,1.0,80,0.00,,,-99.99,WeatherLink 5.4,2013-06-17 11:55:00,
2013-06-17 08:00:00,80.0,72.9,29.93,ESE,112,0.0,3.0,79,0.00,,,-99.99,WeatherLink 5.4,2013-06-17 12:00:00,
2013-06-17 08:06:00,80.0,72.9,29.93,ESE,112,0.0,3.0,79,0.00,,,-99.99,WeatherLink 5.4,2013-06-17 12:06:00,
2013-06-17 08:11:00,80.2,73.1,29.93,North,-999,0.0,0.0,79,0.00,,,-99.99,WeatherLink 5.4,2013-06-17 12:11:00,
2013-06-17 08:17:00,80.2,73.1,29.93,North,-999,0.0,0.0,79,0.00,,,-99.99,WeatherLink 5.4,2013-06-17 12:17:00,
2013-06-17 08:22:00,80.6,73.1,29.92,East,90,0.0,3.0,78,0.00,,,-99.99,WeatherLink 5.4,2013-06-17 12:22:00,
2013-06-17 08:28:00,80.6,73.1,29.92,East,90,0.0,3.0,78,0.00,,,-99.99,WeatherLink 5.4,2013-06-17 12:28:00,
2013-06-17 08:34:00,80.8,72.9,29.92,South,180,1.0,7.0,77,0.00,,,-99.99,WeatherLink 5.4,2013-06-17 12:34:00,
2013-06-17 08:39:00,80.8,72.9,29.92,South,180,1.0,7.0,77,0.00,,,-99.99,WeatherLink 5.4,2013-06-17 12:39:00,
2013-06-17 08:44:00,81.0,73.1,29.92,ESE,112,0.0,6.0,77,0.00,,,-99.99,WeatherLink 5.4,2013-06-17 12:44:00,
2013-06-17 08:50:00,81.1,73.2,29.93,North,-999,0.0,0.0,77,0.00,,,-99.99,WeatherLink 5.4,2013-06-17 12:50:00,
2013-06-17 08:55:00,81.1,73.2,29.93,North,-999,0.0,0.0,77,0.00,,,-99.99,WeatherLink 5.4,2013-06-17 12:55:00,
2013-06-17 09:01:00,81.3,73.0,29.93,North,-999,0.0,0.0,76,0.00,,,-99.99,WeatherLink 5.4,2013-06-17 13:01:00,
2013-06-17 09:07:00,81.3,73.0,29.93,North,-999,0.0,0.0,76,0.00,,,-99.99,WeatherLink 5.4,2013-06-17 13:07:00,
2013-06-17 09:12:00,81.8,73.1,29.93,SE,135,1.0,6.0,75,0.00,,,-99.99,WeatherLink 5.4,2013-06-17 13:12:00,
2013-06-17 09:18:00,81.8,73.1,29.93,SE,135,1.0,6.0,75,0.00,,,-99.99,WeatherLink 5.4,2013-06-17 13:18:00,
2013-06-17 09:24:00,82.2,73.1,29.93,ESE,112,1.0,7.0,74,0.00,,,-99.99,WeatherLink 5.4,2013-06-17 13:24:00,
2013-06-17 09:29:00,82.2,73.1,29.93,ESE,112,1.0,7.0,74,0.00,,,-99.99,WeatherLink 5.4,2013-06-17 13:29:00,
2013-06-17 09:34:00,82.8,73.3,29.93,ESE,112,2.0,8.0,73,0.00,,,-99.99,WeatherLink 5.4,2013-06-17 13:34:00,
2013-06-17 09:41:00,83.5,73.1,29.93,SE,135,3.0,7.0,71,0.00,,,-99.99,WeatherLink 5.4,2013-06-17 13:41:00,
2013-06-17 09:46:00,83.5,73.1,29.93,SE,135,3.0,7.0,71,0.00,,,-99.99,WeatherLink 5.4,2013-06-17 13:46:00,
2013-06-17 09:51:00,83.8,73.4,29.93,SE,135,2.0,8.0,71,0.00,,,-99.99,WeatherLink 5.4,2013-06-17 13:51:00,
2013-06-17 09:57:00,83.8,73.4,29.93,SE,135,2.0,8.0,71,0.00,,,-99.99,WeatherLink 5.4,2013-06-17 13:57:00,
2013-06-17 10:03:00,83.6,72.8,29.93,East,90,1.0,6.0,70,0.00,,,-99.99,WeatherLink 5.4,2013-06-17 14:03:00,
2013-06-17 10:08:00,83.6,72.8,29.93,East,90,1.0,6.0,70,0.00,,,-99.99,WeatherLink 5.4,2013-06-17 14:08:00,
2013-06-17 10:14:00,83.9,72.6,29.93,SE,135,0.0,5.0,69,0.00,,,-99.99,WeatherLink 5.4,2013-06-17 14:14:00,
2013-06-17 10:20:00,84.2,72.5,29.93,SE,135,1.0,7.0,68,0.00,,,-99.99,WeatherLink 5.4,2013-06-17 14:20:00,
2013-06-17 10:25:00,84.2,72.5,29.93,SE,135,1.0,7.0,68,0.00,,,-99.99,WeatherLink 5.4,2013-06-17 14:25:00,
2013-06-17 10:30:00,84.7,72.5,29.93,ESE,112,4.0,8.0,67,0.00,,,-99.99,WeatherLink 5.4,2013-06-17 14:30:00,
2013-06-17 10:36:00,84.7,72.5,29.93,ESE,112,4.0,8.0,67,0.00,,,-99.99,WeatherLink 5.4,2013-06-17 14:36:00,
2013-06-17 10:42:00,84.4,71.8,29.93,East,90,4.0,8.0,66,0.00,,,-99.99,WeatherLink 5.4,2013-06-17 14:42:00,
2013-06-17 10:47:00,84.4,71.8,29.93,East,90,4.0,8.0,66,0.00,,,-99.99,WeatherLink 5.4,2013-06-17 14:47:00,
2013-06-17 10:52:00,84.4,72.7,29.93,ESE,112,2.0,7.0,68,0.00,,,-99.99,WeatherLink 5.4,2013-06-17 14:52:00,
2013-06-17 10:58:00,84.4,72.7,29.93,ESE,112,2.0,7.0,68,0.00,,,-99.99,WeatherLink 5.4,2013-06-17 14:58:00,
2013-06-17 11:03:00,84.4,72.7,29.93,ESE,112,3.0,7.0,68,0.00,,,-99.99,WeatherLink 5.4,2013-06-17 15:03:00,
2013-06-17 11:09:00,84.4,72.7,29.93,ESE,112,3.0,7.0,68,0.00,,,-99.99,WeatherLink 5.4,2013-06-17 15:09:00,
2013-06-17 11:15:00,84.3,72.1,29.93,ESE,112,1.0,7.0,67,0.00,,,-99.99,WeatherLink 5.4,2013-06-17 15:15:00,
2013-06-17 11:21:00,84.3,72.1,29.93,East,90,1.0,7.0,67,0.00,,,-99.99,WeatherLink 5.4,2013-06-17 15:21:00,
2013-06-17 11:26:00,84.3,72.1,29.93,East,90,1.0,7.0,67,0.00,,,-99.99,WeatherLink 5.4,2013-06-17 15:26:00,
2013-06-17 11:32:00,84.2,72.0,29.93,East,90,5.0,11.0,67,0.00,,,-99.99,WeatherLink 5.4,2013-06-17 15:32:00,
2013-06-17 11:38:00,84.2,72.0,29.93,East,90,5.0,11.0,67,0.00,,,-99.99,WeatherLink 5.4,2013-06-17 15:38:00,
2013-06-17 11:44:00,84.0,73.6,29.93,East,90,5.0,12.0,71,0.00,,,-99.99,WeatherLink 5.4,2013-06-17 15:44:00,
2013-06-17 11:49:00,83.9,73.9,29.93,East,90,3.0,10.0,72,0.00,,,-99.99,WeatherLink 5.4,2013-06-17 15:49:00,
2013-06-17 11:55:00,83.9,73.9,29.93,East,90,3.0,10.0,72,0.00,,,-99.99,WeatherLink 5.4,2013-06-17 15:55:00,
2013-06-17 12:00:00,83.5,74.3,29.93,East,90,3.0,8.0,74,0.00,,,-99.99,WeatherLink 5.4,2013-06-17 16:00:00,
2013-06-17 12:06:00,83.5,74.3,29.93,East,90,3.0,8.0,74,0.00,,,-99.99,WeatherLink 5.4,2013-06-17 16:06:00,
2013-06-17 12:12:00,83.2,74.0,29.93,ENE,67,2.0,11.0,74,0.00,,,-99.99,WeatherLink 5.4,2013-06-17 16:12:00,
2013-06-17 12:18:00,83.2,74.0,29.93,ENE,67,2.0,11.0,74,0.00,,,-99.99,WeatherLink 5.4,2013-06-17 16:18:00,
2013-06-17 12:24:00,83.3,74.1,29.92,East,90,3.0,10.0,74,0.00,,,-99.99,WeatherLink 5.4,2013-06-17 16:24:00,
2013-06-17 12:29:00,83.3,74.1,29.92,East,90,3.0,10.0,74,0.00,,,-99.99,WeatherLink 5.4,2013-06-17 16:29:00,
2013-06-17 12:35:00,83.5,74.3,29.92,East,90,3.0,11.0,74,0.00,,,-99.99,WeatherLink 5.4,2013-06-17 16:35:00,
2013-06-17 12:41:00,83.6,74.4,29.92,East,90,2.0,10.0,74,0.00,,,-99.99,WeatherLink 5.4,2013-06-17 16:41:00,
2013-06-17 12:46:00,83.6,74.4,29.92,East,90,2.0,10.0,74,0.00,,,-99.99,WeatherLink 5.4,2013-06-17 16:46:00,
2013-06-17 12:51:00,83.8,74.2,29.92,East,90,3.0,8.0,73,0.00,,,-99.99,WeatherLink 5.4,2013-06-17 16:51:00,
2013-06-17 12:57:00,83.8,74.2,29.92,East,90,3.0,8.0,73,0.00,,,-99.99,WeatherLink 5.4,2013-06-17 16:57:00,
2013-06-17 13:02:00,84.1,74.1,29.92,East,90,5.0,12.0,72,0.00,,,-99.99,WeatherLink 5.4,2013-06-17 17:02:00,
2013-06-17 13:07:00,84.1,74.1,29.92,East,90,5.0,12.0,72,0.00,,,-99.99,WeatherLink 5.4,2013-06-17 17:07:00,
2013-06-17 13:13:00,84.4,74.0,29.92,East,90,3.0,12.0,71,0.00,,,-99.99,WeatherLink 5.4,2013-06-17 17:13:00,
2013-06-17 13:18:00,84.4,74.0,29.92,East,90,3.0,12.0,71,0.00,,,-99.99,WeatherLink 5.4,2013-06-17 17:18:00,
2013-06-17 13:20:00,84.4,74.0,29.92,ENE,67,4.0,12.0,71,0.00,,,-99.99,WeatherLink 5.4,2013-06-17 17:20:00,
2013-06-17 13:24:00,84.4,74.0,29.92,ENE,67,4.0,12.0,71,0.00,,,-99.99,WeatherLink 5.4,2013-06-17 17:24:00,
2013-06-17 13:30:00,84.3,73.0,29.91,East,90,4.0,7.0,69,0.00,,,-99.99,WeatherLink 5.4,2013-06-17 17:30:00,
2013-06-17 13:37:00,84.3,73.0,29.91,East,90,4.0,7.0,69,0.00,,,-99.99,WeatherLink 5.4,2013-06-17 17:37:00,
2013-06-17 13:43:00,84.1,72.4,29.91,ENE,67,3.0,11.0,68,0.00,,,-99.99,WeatherLink 5.4,2013-06-17 17:43:00,
2013-06-17 13:49:00,84.1,72.4,29.91,ENE,67,3.0,11.0,68,0.00,,,-99.99,WeatherLink 5.4,2013-06-17 17:49:00,
2013-06-17 13:55:00,84.5,72.8,29.91,East,90,3.0,12.0,68,0.00,,,-99.99,WeatherLink 5.4,2013-06-17 17:55:00,
2013-06-17 14:00:00,85.4,74.1,29.91,ENE,67,2.0,12.0,69,0.00,,,-99.99,WeatherLink 5.4,2013-06-17 18:00:00,
2013-06-17 14:06:00,85.4,74.1,29.91,ENE,67,2.0,12.0,69,0.00,,,-99.99,WeatherLink 5.4,2013-06-17 18:06:00,
2013-06-17 14:12:00,85.7,73.9,29.91,East,90,3.0,14.0,68,0.00,,,-99.99,WeatherLink 5.4,2013-06-17 18:12:00,
2013-06-17 14:18:00,85.7,73.9,29.91,East,90,3.0,14.0,68,0.00,,,-99.99,WeatherLink 5.4,2013-06-17 18:18:00,
2013-06-17 14:24:00,85.6,73.8,29.90,East,90,5.0,16.0,68,0.00,,,-99.99,WeatherLink 5.4,2013-06-17 18:24:00,
2013-06-17 14:29:00,85.6,73.8,29.90,East,90,5.0,16.0,68,0.00,,,-99.99,WeatherLink 5.4,2013-06-17 18:29:00,
2013-06-17 14:34:00,85.5,74.2,29.90,East,90,3.0,12.0,69,0.00,,,-99.99,WeatherLink 5.4,2013-06-17 18:34:00,
2013-06-17 14:40:00,85.2,74.3,29.90,ENE,67,4.0,10.0,70,0.00,,,-99.99,WeatherLink 5.4,2013-06-17 18:40:00,
2013-06-17 14:45:00,85.2,74.3,29.90,ENE,67,4.0,10.0,70,0.00,,,-99.99,WeatherLink 5.4,2013-06-17 18:45:00,
2013-06-17 14:51:00,85.1,74.2,29.90,East,90,3.0,10.0,70,0.00,,,-99.99,WeatherLink 5.4,2013-06-17 18:51:00,
2013-06-17 14:56:00,85.1,74.2,29.90,East,90,3.0,10.0,70,0.00,,,-99.99,WeatherLink 5.4,2013-06-17 18:56:00,
2013-06-17 15:01:00,85.5,74.2,29.90,East,90,2.0,12.0,69,0.00,,,-99.99,WeatherLink 5.4,2013-06-17 19:01:00,
2013-06-17 15:06:00,85.5,74.2,29.90,East,90,2.0,12.0,69,0.00,,,-99.99,WeatherLink 5.4,2013-06-17 19:06:00,
2013-06-17 15:12:00,85.6,73.8,29.90,East,90,3.0,11.0,68,0.00,,,-99.99,WeatherLink 5.4,2013-06-17 19:12:00,
2013-06-17 15:17:00,85.6,73.8,29.90,East,90,3.0,11.0,68,0.00,,,-99.99,WeatherLink 5.4,2013-06-17 19:17:00,
2013-06-17 15:22:00,85.7,74.4,29.89,East,90,5.0,12.0,69,0.00,,,-99.99,WeatherLink 5.4,2013-06-17 19:22:00,
2013-06-17 15:29:00,85.7,74.4,29.89,East,90,5.0,12.0,69,0.00,,,-99.99,WeatherLink 5.4,2013-06-17 19:29:00,
2013-06-17 15:34:00,85.5,73.7,29.89,East,90,3.0,13.0,68,0.00,,,-99.99,WeatherLink 5.4,2013-06-17 19:34:00,
2013-06-17 15:40:00,85.3,74.0,29.89,East,90,5.0,17.0,69,0.00,,,-99.99,WeatherLink 5.4,2013-06-17 19:40:00,
2013-06-17 15:45:00,85.3,74.0,29.89,East,90,5.0,17.0,69,0.00,,,-99.99,WeatherLink 5.4,2013-06-17 19:45:00,
2013-06-17 15:51:00,85.2,73.9,29.89,East,90,2.0,11.0,69,0.00,,,-99.99,WeatherLink 5.4,2013-06-17 19:51:00,
2013-06-17 15:57:00,85.2,73.9,29.89,East,90,2.0,11.0,69,0.00,,,-99.99,WeatherLink 5.4,2013-06-17 19:57:00,
2013-06-17 16:02:00,85.1,73.8,29.89,East,90,3.0,12.0,69,0.00,,,-99.99,WeatherLink 5.4,2013-06-17 20:02:00,
2013-06-17 16:08:00,85.1,73.8,29.89,East,90,3.0,12.0,69,0.00,,,-99.99,WeatherLink 5.4,2013-06-17 20:08:00,
2013-06-17 16:13:00,84.6,73.7,29.89,ENE,67,3.0,11.0,70,0.00,,,-99.99,WeatherLink 5.4,2013-06-17 20:13:00,
2013-06-17 16:18:00,84.6,73.7,29.89,ENE,67,3.0,11.0,70,0.00,,,-99.99,WeatherLink 5.4,2013-06-17 20:18:00,
2013-06-17 16:24:00,84.3,73.0,29.89,East,90,3.0,11.0,69,0.00,,,-99.99,WeatherLink 5.4,2013-06-17 20:24:00,
2013-06-17 16:29:00,84.3,73.0,29.89,East,90,3.0,11.0,69,0.00,,,-99.99,WeatherLink 5.4,2013-06-17 20:29:00,
2013-06-17 16:34:00,84.2,73.3,29.89,ENE,67,3.0,11.0,70,0.00,,,-99.99,WeatherLink 5.4,2013-06-17 20:34:00,
2013-06-17 16:40:00,84.1,73.7,29.89,East,90,4.0,11.0,71,0.00,,,-99.99,WeatherLink 5.4,2013-06-17 20:40:00,
2013-06-17 16:46:00,84.1,73.7,29.89,East,90,4.0,11.0,71,0.00,,,-99.99,WeatherLink 5.4,2013-06-17 20:46:00,
2013-06-17 16:52:00,84.1,72.8,29.89,East,90,5.0,16.0,69,0.00,,,-99.99,WeatherLink 5.4,2013-06-17 20:52:00,
2013-06-17 16:57:00,84.1,72.8,29.89,East,90,5.0,16.0,69,0.00,,,-99.99,WeatherLink 5.4,2013-06-17 20:57:00,
2013-06-17 17:03:00,84.0,73.2,29.89,East,90,3.0,11.0,70,0.00,,,-99.99,WeatherLink 5.4,2013-06-17 21:03:00,
2013-06-17 17:09:00,84.0,73.2,29.89,East,90,3.0,11.0,70,0.00,,,-99.99,WeatherLink 5.4,2013-06-17 21:09:00,
2013-06-17 17:14:00,84.0,73.2,29.89,ENE,67,3.0,13.0,70,0.00,,,-99.99,WeatherLink 5.4,2013-06-17 21:14:00,
2013-06-17 17:19:00,84.0,73.2,29.89,ENE,67,3.0,13.0,70,0.00,,,-99.99,WeatherLink 5.4,2013-06-17 21:19:00,
2013-06-17 17:25:00,84.0,73.6,29.89,East,90,4.0,10.0,71,0.00,,,-99.99,WeatherLink 5.4,2013-06-17 21:25:00,
2013-06-17 17:30:00,83.8,73.4,29.89,ENE,67,2.0,12.0,71,0.00,,,-99.99,WeatherLink 5.4,2013-06-17 21:30:00,
2013-06-17 17:36:00,83.8,73.4,29.89,ENE,67,2.0,12.0,71,0.00,,,-99.99,WeatherLink 5.4,2013-06-17 21:36:00,
2013-06-17 17:41:00,83.7,73.3,29.89,East,90,4.0,12.0,71,0.00,,,-99.99,WeatherLink 5.4,2013-06-17 21:41:00,
2013-06-17 17:47:00,83.7,73.3,29.89,East,90,4.0,12.0,71,0.00,,,-99.99,WeatherLink 5.4,2013-06-17 21:47:00,
2013-06-17 17:53:00,83.4,73.0,29.89,ENE,67,3.0,11.0,71,0.00,,,-99.99,WeatherLink 5.4,2013-06-17 21:53:00,
2013-06-17 17:58:00,83.4,73.0,29.89,ENE,67,3.0,11.0,71,0.00,,,-99.99,WeatherLink 5.4,2013-06-17 21:58:00,
2013-06-17 18:03:00,83.2,73.2,29.89,East,90,3.0,11.0,72,0.00,,,-99.99,WeatherLink 5.4,2013-06-17 22:03:00,
2013-06-17 18:08:00,83.2,73.2,29.89,East,90,3.0,11.0,72,0.00,,,-99.99,WeatherLink 5.4,2013-06-17 22:08:00,
2013-06-17 18:13:00,83.0,72.6,29.89,East,90,4.0,10.0,71,0.00,,,-99.99,WeatherLink 5.4,2013-06-17 22:13:00,
2013-06-17 18:19:00,83.0,72.6,29.89,East,90,4.0,10.0,71,0.00,,,-99.99,WeatherLink 5.4,2013-06-17 22:19:00,
2013-06-17 18:25:00,82.9,72.5,29.90,East,90,5.0,14.0,71,0.00,,,-99.99,WeatherLink 5.4,2013-06-17 22:25:00,
2013-06-17 18:31:00,82.6,72.7,29.91,East,90,4.0,11.0,72,0.00,,,-99.99,WeatherLink 5.4,2013-06-17 22:31:00,
2013-06-17 18:37:00,82.6,72.7,29.91,East,90,4.0,11.0,72,0.00,,,-99.99,WeatherLink 5.4,2013-06-17 22:37:00,
2013-06-17 18:43:00,82.6,72.7,29.91,East,90,3.0,10.0,72,0.00,,,-99.99,WeatherLink 5.4,2013-06-17 22:43:00,
2013-06-17 18:48:00,82.6,72.7,29.91,East,90,3.0,10.0,72,0.00,,,-99.99,WeatherLink 5.4,2013-06-17 22:48:00,
2013-06-17 18:53:00,82.4,72.9,29.91,East,90,2.0,10.0,73,0.00,,,-99.99,WeatherLink 5.4,2013-06-17 22:53:00,
2013-06-17 18:58:00,82.4,72.9,29.91,East,90,2.0,10.0,73,0.00,,,-99.99,WeatherLink 5.4,2013-06-17 22:58:00,
2013-06-17 19:04:00,82.3,73.2,29.91,ENE,67,3.0,11.0,74,0.00,,,-99.99,WeatherLink 5.4,2013-06-17 23:04:00,
2013-06-17 19:09:00,82.3,73.2,29.91,ENE,67,3.0,11.0,74,0.00,,,-99.99,WeatherLink 5.4,2013-06-17 23:09:00,
2013-06-17 19:10:00,82.0,72.9,29.91,East,90,3.0,10.0,74,0.00,,,-99.99,WeatherLink 5.4,2013-06-17 23:10:00,
2013-06-17 19:14:00,82.0,72.9,29.91,East,90,3.0,10.0,74,0.00,,,-99.99,WeatherLink 5.4,2013-06-17 23:14:00,
2013-06-17 19:20:00,81.9,73.2,29.91,East,90,3.0,7.0,75,0.00,,,-99.99,WeatherLink 5.4,2013-06-17 23:20:00,
2013-06-17 19:26:00,81.9,73.2,29.91,East,90,3.0,7.0,75,0.00,,,-99.99,WeatherLink 5.4,2013-06-17 23:26:00,
2013-06-17 19:32:00,81.7,73.0,29.91,East,90,5.0,11.0,75,0.00,,,-99.99,WeatherLink 5.4,2013-06-17 23:32:00,
2013-06-17 19:38:00,81.7,73.0,29.91,East,90,5.0,11.0,75,0.00,,,-99.99,WeatherLink 5.4,2013-06-17 23:38:00,
2013-06-17 19:43:00,81.6,72.9,29.91,East,90,4.0,11.0,75,0.00,,,-99.99,WeatherLink 5.4,2013-06-17 23:43:00,
2013-06-17 19:49:00,81.6,72.9,29.91,East,90,4.0,11.0,75,0.00,,,-99.99,WeatherLink 5.4,2013-06-17 23:49:00,
2013-06-17 19:54:00,81.4,72.7,29.92,East,90,2.0,7.0,75,0.00,,,-99.99,WeatherLink 5.4,2013-06-17 23:54:00,
2013-06-17 19:59:00,81.4,72.7,29.92,East,90,2.0,7.0,75,0.00,,,-99.99,WeatherLink 5.4,2013-06-17 23:59:00,
2013-06-17 20:05:00,81.4,72.7,29.92,East,90,1.0,7.0,75,0.00,,,-99.99,WeatherLink 5.4,2013-06-18 00:05:00,
2013-06-17 20:10:00,81.2,72.9,29.92,ENE,67,1.0,8.0,76,0.00,,,-99.99,WeatherLink 5.4,2013-06-18 00:10:00,
2013-06-17 20:15:00,81.2,72.9,29.92,ENE,67,1.0,8.0,76,0.00,,,-99.99,WeatherLink 5.4,2013-06-18 00:15:00,
2013-06-17 20:21:00,81.2,72.9,29.92,ENE,67,2.0,10.0,76,0.00,,,-99.99,WeatherLink 5.4,2013-06-18 00:21:00,
2013-06-17 20:28:00,81.2,72.9,29.92,ENE,67,2.0,10.0,76,0.00,,,-99.99,WeatherLink 5.4,2013-06-18 00:28:00,
2013-06-17 20:35:00,81.1,72.8,29.93,East,90,2.0,10.0,76,0.00,,,-99.99,WeatherLink 5.4,2013-06-18 00:35:00,
2013-06-17 20:40:00,80.9,73.0,29.93,East,90,5.0,10.0,77,0.00,,,-99.99,WeatherLink 5.4,2013-06-18 00:40:00,
2013-06-17 20:45:00,80.9,73.0,29.93,East,90,5.0,10.0,77,0.00,,,-99.99,WeatherLink 5.4,2013-06-18 00:45:00,
2013-06-17 20:51:00,80.9,73.0,29.93,East,90,3.0,8.0,77,0.00,,,-99.99,WeatherLink 5.4,2013-06-18 00:51:00,
2013-06-17 20:57:00,80.9,73.0,29.93,East,90,3.0,8.0,77,0.00,,,-99.99,WeatherLink 5.4,2013-06-18 00:57:00,
2013-06-17 21:02:00,80.9,73.4,29.93,ENE,67,2.0,10.0,78,0.00,,,-99.99,WeatherLink 5.4,2013-06-18 01:02:00,
2013-06-17 21:08:00,80.9,73.4,29.93,ENE,67,2.0,10.0,78,0.00,,,-99.99,WeatherLink 5.4,2013-06-18 01:08:00,
2013-06-17 21:14:00,80.7,73.2,29.93,East,90,2.0,8.0,78,0.00,,,-99.99,WeatherLink 5.4,2013-06-18 01:14:00,
2013-06-17 21:20:00,80.7,73.2,29.93,ENE,67,5.0,11.0,78,0.00,,,-99.99,WeatherLink 5.4,2013-06-18 01:20:00,
2013-06-17 21:25:00,80.7,73.2,29.93,ENE,67,5.0,11.0,78,0.00,,,-99.99,WeatherLink 5.4,2013-06-18 01:25:00,
2013-06-17 21:31:00,80.5,73.0,29.93,East,90,3.0,9.0,78,0.00,,,-99.99,WeatherLink 5.4,2013-06-18 01:31:00,
2013-06-17 21:37:00,80.5,73.0,29.93,East,90,3.0,9.0,78,0.00,,,-99.99,WeatherLink 5.4,2013-06-18 01:37:00,
2013-06-17 21:43:00,80.5,73.4,29.93,East,90,2.0,10.0,79,0.00,,,-99.99,WeatherLink 5.4,2013-06-18 01:43:00,
2013-06-17 21:49:00,80.5,73.4,29.93,East,90,2.0,10.0,79,0.00,,,-99.99,WeatherLink 5.4,2013-06-18 01:49:00,
2013-06-17 21:55:00,80.5,73.4,29.93,East,90,1.0,5.0,79,0.00,,,-99.99,WeatherLink 5.4,2013-06-18 01:55:00,
2013-06-17 22:00:00,80.5,73.4,29.93,East,90,2.0,8.0,79,0.00,,,-99.99,WeatherLink 5.4,2013-06-18 02:00:00,
2013-06-17 22:05:00,80.5,73.4,29.93,East,90,2.0,8.0,79,0.00,,,-99.99,WeatherLink 5.4,2013-06-18 02:05:00,
2013-06-17 22:11:00,80.5,73.8,29.93,East,90,2.0,9.0,80,0.00,,,-99.99,WeatherLink 5.4,2013-06-18 02:11:00,
2013-06-17 22:17:00,80.5,73.8,29.93,East,90,2.0,9.0,80,0.00,,,-99.99,WeatherLink 5.4,2013-06-18 02:17:00,
2013-06-17 22:23:00,80.3,73.6,29.93,East,90,2.0,11.0,80,0.00,,,-99.99,WeatherLink 5.4,2013-06-18 02:23:00,
2013-06-17 22:28:00,80.3,73.6,29.93,East,90,2.0,11.0,80,0.00,,,-99.99,WeatherLink 5.4,2013-06-18 02:28:00,
2013-06-17 22:33:00,80.3,73.6,29.93,East,90,3.0,11.0,80,0.00,,,-99.99,WeatherLink 5.4,2013-06-18 02:33:00,
2013-06-17 22:38:00,80.3,73.6,29.93,East,90,3.0,11.0,80,0.00,,,-99.99,WeatherLink 5.4,2013-06-18 02:38:00,
2013-06-17 22:44:00,80.3,73.6,29.93,East,90,2.0,11.0,80,0.00,,,-99.99,WeatherLink 5.4,2013-06-18 02:44:00,
2013-06-17 22:49:00,80.3,73.6,29.93,East,90,2.0,11.0,80,0.00,,,-99.99,WeatherLink 5.4,2013-06-18 02:49:00,
2013-06-17 22:55:00,80.3,73.6,29.93,East,90,2.0,11.0,80,0.00,,,-99.99,WeatherLink 5.4,2013-06-18 02:55:00,
2013-06-17 23:00:00,80.2,73.5,29.93,ENE,67,3.0,9.0,80,0.00,,,-99.99,WeatherLink 5.4,2013-06-18 03:00:00,
2013-06-17 23:06:00,80.2,73.5,29.93,ENE,67,3.0,9.0,80,0.00,,,-99.99,WeatherLink 5.4,2013-06-18 03:06:00,
2013-06-17 23:11:00,80.1,73.0,29.93,East,90,4.0,10.0,79,0.00,,,-99.99,WeatherLink 5.4,2013-06-18 03:11:00,
2013-06-17 23:17:00,80.1,73.0,29.93,East,90,4.0,10.0,79,0.00,,,-99.99,WeatherLink 5.4,2013-06-18 03:17:00,
2013-06-17 23:20:00,80.1,73.0,29.93,ENE,67,3.0,12.0,79,0.00,,,-99.99,WeatherLink 5.4,2013-06-18 03:20:00,
2013-06-17 23:22:00,80.1,73.0,29.93,ENE,67,3.0,12.0,79,0.00,,,-99.99,WeatherLink 5.4,2013-06-18 03:22:00,
2013-06-17 23:27:00,80.1,73.0,29.93,ENE,67,3.0,12.0,79,0.00,,,-99.99,WeatherLink 5.4,2013-06-18 03:27:00,
2013-06-17 23:33:00,80.1,73.0,29.93,East,90,2.0,8.0,79,0.00,,,-99.99,WeatherLink 5.4,2013-06-18 03:33:00,
2013-06-17 23:38:00,80.1,73.0,29.93,East,90,2.0,8.0,79,0.00,,,-99.99,WeatherLink 5.4,2013-06-18 03:38:00,
2013-06-17 23:43:00,79.9,72.4,29.93,East,90,4.0,11.0,78,0.00,,,-99.99,WeatherLink 5.4,2013-06-18 03:43:00,
2013-06-17 23:48:00,79.9,72.4,29.93,East,90,4.0,11.0,78,0.00,,,-99.99,WeatherLink 5.4,2013-06-18 03:48:00,
2013-06-17 23:53:00,79.9,72.0,29.93,ENE,67,1.0,6.0,77,0.00,,,-99.99,WeatherLink 5.4,2013-06-18 03:53:00,
2013-06-17 23:59:00,79.9,72.0,29.93,ENE,67,1.0,6.0,77,0.00,,,-99.99,WeatherLink 5.4,2013-06-18 03:59:00,